This is the latest recevied weather packets stored in our database for station/object ac2ev. If no packets are shown the sender has not sent any weather packets the latest 10 day(s).
| Time | Temp. | Humidity | Pressure | Rain* | Wind** | Luminosity | Snow |
|---|---|---|---|---|---|---|---|
| 1777863135 | 12.22° C | 54% | 1007.7 hPa | 0 mm | - | - | - |
| 1777862830 | 12.78° C | 54% | 1007.8 hPa | 0 mm | - | - | - |
| 1777862531 | 12.78° C | 54% | 1007.8 hPa | 0 mm | - | - | - |
| 1777862231 | 12.78° C | 54% | 1007.9 hPa | 0 mm | - | - | - |
| 1777861930 | 12.78° C | 56% | 1007.9 hPa | 0 mm | - | - | - |
| 1777861628 | 12.22° C | 55% | 1007.9 hPa | 0 mm | - | - | - |
| 1777861328 | 12.22° C | 57% | 1007.9 hPa | 0 mm | - | - | - |
| 1777861026 | 12.22° C | 58% | 1008 hPa | 0 mm | - | - | - |
| 1777860726 | 11.67° C | 61% | 1008 hPa | 0 mm | - | - | - |
| 1777860426 | 11.67° C | 63% | 1008 hPa | 0 mm | - | - | - |
| 1777860126 | 11.11° C | 68% | 1008 hPa | 0 mm | - | - | - |
| 1777859823 | 11.11° C | 69% | 1008 hPa | 0 mm | - | - | - |
| 1777859522 | 10.56° C | 71% | 1008.1 hPa | 0 mm | - | - | - |
| 1777859222 | 10.56° C | 72% | 1008 hPa | 0 mm | - | - | - |
| 1777858920 | 10.56° C | 74% | 1008.1 hPa | 0 mm | - | - | - |
| 1777858617 | 10.56° C | 75% | 1008.1 hPa | 0 mm | - | - | - |
| 1777858315 | 10° C | 78% | 1008.1 hPa | 0 mm | - | - | - |
| 1777858014 | 10° C | 80% | 1008.1 hPa | 0 mm | - | - | - |
| 1777857714 | 10° C | 82% | 1008.1 hPa | 0 mm | - | - | - |
| 1777857413 | 9.44° C | 84% | 1008.1 hPa | 0 mm | - | - | - |
| 1777857114 | 9.44° C | 85% | 1008.2 hPa | 0 mm | - | - | - |
| 1777856807 | 9.44° C | 85% | 1008.2 hPa | 0 mm | - | - | - |
| 1777856501 | 9.44° C | 85% | 1008.4 hPa | 0 mm | - | - | - |
| 1777856196 | 9.44° C | 85% | 1008.5 hPa | 0.25 mm | - | - | - |
| 1777855892 | 9.44° C | 85% | 1008.7 hPa | 0.25 mm | - | - | - |
* Rain latest hour (hover to see other rain measurements)
** Current wind speed in m/s (hover to see current wind gust speed)